Regional Weather Roundup
Issued by NWS

Home | Current Version | Previous Version | Text Only | Print | Product List | Glossary Off
Versions: 1 2 3 4 5 6 7 8 9 10 11 12 13 14 15 16 17 18 19 20 21 22 23 24 25 26 27 28 29 30 31 32 33 34 35 36 37 38 39 40 41 42 43 44 45 46 47 48 49 50

707
ASUS43 KIND 240909
RWRIN

WEATHER ROUNDUP FOR INDIANA
NATIONAL WEATHER SERVICE INDIANAPOLIS IN
400 AM EST SAT FEB 24 2018

NOTE: "FAIR" INDICATES FEW OR NO CLOUDS BELOW 12,000 FEET WITH NO
SIGNIFICANT WEATHER AND/OR OBSTRUCTIONS TO VISIBILITY.

* - STATION DOES NOT REPORT WEATHER SUCH AS PRECIPITATION OR FOG.

+ - STATION NOT QUALITY CONTROLLED BY THE NATIONAL WEATHER SERVICE.
    USE DATA WITH CAUTION...ESPECIALLY DEWPOINT AND RELATIVE
    HUMIDITY OBSERVATIONS.

INZ001>003-010>013-019-020-241000-
NORTHWEST INDIANA

CITY           SKY/WX    TMP DP  RH WIND       PRES   REMARKS
GARY /AIRPORT/ FAIR      36  32  86 N9        30.23F WCI  29
LA PORTE +     CLOUDY    35  32  88 CALM      30.23R
MICHIGAN CITY+ MOCLDY    34  32  93 N3        30.23S
MONTICELLO +   DRIZZLE   37  35  95 NE5       30.20F WCI  33
RENSSELAER +   CLOUDY    36  32  87 CALM      30.22F
VALPARAISO     CLOUDY    37  33  85 E5        30.23R WCI  33

$$

LMZ046-743>745-241000-
SOUTHERN LAKE MICHIGAN

STATION/POSITION TIME  TEMP    WIND        PRES    WAVE
                       AIR SEA DIR/SP/G            HT
                 (UTC) (F)     (DEG/KT/KT) (MB)    (FT)
BURNS HARBOR     0902   34      20/  7/ 10 1024.0
MICHIGAN CITY    0840   33      20/  4/  5   N/A

$$

INZ004-005-014>016-021>024-241000-
NORTH CENTRAL INDIANA

CITY           SKY/WX    TMP DP  RH WIND       PRES   REMARKS
GOSHEN         CLOUDY    36  32  85 E3        30.23S
LOGANSPORT +   RAIN      36  34  93 CALM      30.21F
PERU/GRISSOM   LGT RAIN  38  38 100 NE3       30.19F FOG
ROCHESTER +    CLOUDY    37  36  93 NE5       30.23F WCI  34
SOUTH BEND     CLOUDY    35  29  78 NE7       30.22F WCI  29
WARSAW +       CLOUDY    36  32  87 N6        30.23R WCI  31

$$

INZ006>009-017-018-025>027-241000-
NORTHEAST INDIANA

CITY           SKY/WX    TMP DP  RH WIND       PRES   REMARKS
AUBURN +       CLOUDY    36  34  93 N3        30.23R
FORT WAYNE     LGT RAIN  39  37  92 N6        30.23S FOG     WCI  35
HUNTINGTON +   RAIN      37  37  97 N5        30.21S WCI  34
KENDALLVILLE + CLOUDY    35  33  92 N3        30.23R

$$

INZ028-029-035-036-043>045-051>053-241000-
WEST CENTRAL INDIANA

CITY           SKY/WX    TMP DP  RH WIND       PRES   REMARKS
CRAWFORDSVL +  LGT SNOW  36  36 100 NE9         N/A  WCI  29
GREENCASTLE +  LGT RAIN  39  39 100 NE8       30.15F WCI  34
LAFAYETTE      LGT RAIN  37  36  96 NE7       30.19F WCI  32
TERRE HAUTE    LGT RAIN  42  41  96 NE9       30.15F

$$

INZ030>032-037>040-046>048-054>057-064-065-241000-
CENTRAL INDIANA

CITY           SKY/WX    TMP DP  RH WIND       PRES   REMARKS
FISHERS *+     CLOUDY    39  39 100 N6        30.18F WCI  35
GREENWOOD *+   CLOUDY    41 -47   2 NE5       30.18F
INDIANAPOLIS   LGT RAIN  42  41  96 N9        30.16F
-EAGLE CREEK   RAIN      42  39  89 N7        30.16F
KOKOMO +       LGT RAIN  39  38  96 N9        30.20F FOG     WCI  33
MARION +       LGT RAIN  39  38  97 CALM      30.19F
MT COMFORT *+  CLOUDY    41  41 100 N8        30.18F
SHELBYVILLE    LGT RAIN  44  41  89 N6        30.17S
ZIONSVILLE +   RAIN      38  38 100 CALM      30.20S

$$

INZ033-034-041-042-049-050-058-059-241000-
EAST CENTRAL INDIANA

CITY           SKY/WX    TMP DP  RH WIND       PRES   REMARKS
MUNCIE         LGT RAIN  42  40  92 NE7       30.17F
RICHMOND +     CLOUDY    43  43 100 CALM      30.18R FOG

$$

INZ060-061-067>069-081>083-085>088-241000-
SOUTHWEST INDIANA

CITY           SKY/WX    TMP DP  RH WIND       PRES   REMARKS
EVANSVILLE     LGT RAIN  48  48 100 NE10      30.11F
HUNTINGBURG +  LGT RAIN  48  47  96 NE9       30.12F FOG
WASHINGTON +   LGT RAIN  46  44  94 NE6       30.14F

$$

INZ062-063-066-070>080-084-089>092-241000-
SOUTH CENTRAL AND SOUTHEAST INDIANA

CITY           SKY/WX    TMP DP  RH WIND       PRES   REMARKS
BATESVILLE +   CLOUDY    46  46 100 MISG      30.15F FOG
BEDFORD +      RAIN      46  45  93 N6        30.16F
BLOOMINGTON    LGT RAIN  45  43  93 E7        30.15F
FRENCH LICK *+ CLOUDY    46 N/A N/A NE9       30.13F
MADISON *+     CLOUDY    50  46  87 N3        30.16S
NORTH VERNON + DRIZZLE   46  45  93 N3        30.17F
SEYMOUR +      CLOUDY    48  46  93 N9        30.16F

$$





USA.gov is the U.S. government's official web portal to all federal, state and local government web resources and services.